"Pseudo-MPEC" for tscay01

Created 2025 Jun 17 15:35:05 UT using Find_Orb

Click here for an explanation of pseudo-MPECs

 
 Astrometry: 
     tscay01*KB2025 06 03.88009915 05 36.625+12 54 45.59   ~65Kl 18.98GWNEOCPL92
     tscay01 KB2025 06 03.88364115 05 36.753+12 54 46.93   ~65Kl 19.60GWNEOCPL92
     tscay01 KB2025 06 03.88718815 05 36.768+12 54 49.86   ~65Kl 19.17GWNEOCPL92

Station data:
(L92) San Costantino  (N38.705391 E16.002110)  Italy.  Observer T. Scarmato.
   0.25-m Newtonian reflector + CCD.

Orbital elements:  tscay01
   Perihelion 2025 Mar 30.14275 +/- 48.9 TT =  3:25:33 (JD 2460764.64275)
Epoch 2025 Jun  4.0 TT = JDT 2460830.5   Earth MOID: 0.0449      AutoNEOCP
M   5.92905084 +/- 30               (J2000 ecliptic)
n   0.09002882 +/- 0.215            Peri.  271.97872 +/- 80
a   4.93039432 +/- 7.84             Node   234.37602 +/- 39
e   0.8793993 +/- 0.26              Incl.   40.94841 +/- 13
P  10.94769                H 19.44  G  0.15   U 11.7  SR
q 0.59460877 +/- 0.476    Q 9.26617988 +/- 50
From 3 observations 2025 June 3 (10.2 min); mean residual 0".38
Residuals in arcseconds: 
250603 L92  .28-  .28+    250603 L92  .55+  .53-    250603 L92  .27-  .26+    

Ephemerides (geocentric):
Date (UTC) HH   RA             Dec           delta  r     elong  mag " sig PA
---- --------  ------------   ------------  ------ ------ -----  --- --------
2025 06 17 16  15 12 04.248   +13 31 21.21  .69411 1.5410 127.6 20.9  28d  82
2025 06 17 17  15 12 05.526   +13 31 15.93  .69496 1.5415 127.6 20.9  28d  82
2025 06 17 18  15 12 06.804   +13 31 10.60  .69582 1.5421 127.6 20.9  28d  82
2025 06 17 19  15 12 08.084   +13 31 05.22  .69667 1.5427 127.5 20.9  28d  82
2025 06 17 20  15 12 09.364   +13 30 59.80  .69752 1.5432 127.5 20.9  28d  82
2025 06 17 21  15 12 10.646   +13 30 54.33  .69838 1.5438 127.5 20.9  28d  82
2025 06 17 22  15 12 11.928   +13 30 48.81  .69923 1.5444 127.5 21.0  28d  82
2025 06 17 23  15 12 13.211   +13 30 43.25  .70009 1.5449 127.4 21.0  28d  82
2025 06 18 00  15 12 14.495   +13 30 37.65  .70094 1.5455 127.4 21.0  28d  82
2025 06 18 01  15 12 15.780   +13 30 32.00  .70179 1.5461 127.4 21.0  28d  82
2025 06 18 02  15 12 17.066   +13 30 26.31  .70265 1.5466 127.3 21.0  28d  82
2025 06 18 03  15 12 18.352   +13 30 20.57  .70350 1.5472 127.3 21.0  28d  82
2025 06 18 04  15 12 19.640   +13 30 14.79  .70436 1.5478 127.3 21.0  28d  82
2025 06 18 05  15 12 20.928   +13 30 08.96  .70521 1.5483 127.3 21.0  28d  82
2025 06 18 06  15 12 22.218   +13 30 03.09  .70607 1.5489 127.2 21.0  28d  82
2025 06 18 07  15 12 23.508   +13 29 57.18  .70692 1.5495 127.2 21.0  29d  82
2025 06 18 08  15 12 24.799   +13 29 51.22  .70778 1.5500 127.2 21.0  29d  82
2025 06 18 09  15 12 26.091   +13 29 45.22  .70864 1.5506 127.2 21.0  29d  82
2025 06 18 10  15 12 27.384   +13 29 39.17  .70949 1.5511 127.1 21.0  29d  82
2025 06 18 11  15 12 28.678   +13 29 33.08  .71035 1.5517 127.1 21.0  29d  82
2025 06 18 12  15 12 29.973   +13 29 26.95  .71120 1.5523 127.1 21.0  29d  82
2025 06 18 13  15 12 31.268   +13 29 20.77  .71206 1.5528 127.1 21.0  29d  82
2025 06 18 14  15 12 32.565   +13 29 14.56  .71291 1.5534 127.0 21.0  29d  82
2025 06 18 15  15 12 33.862   +13 29 08.29  .71377 1.5540 127.0 21.0  29d  82
2025 06 18 16  15 12 35.161   +13 29 01.99  .71463 1.5545 127.0 21.0  29d  82
2025 06 18 17  15 12 36.460   +13 28 55.64  .71548 1.5551 127.0 21.0  29d  82
2025 06 18 18  15 12 37.760   +13 28 49.25  .71634 1.5557 126.9 21.0  29d  82
2025 06 18 19  15 12 39.061   +13 28 42.82  .71720 1.5562 126.9 21.0  29d  82
2025 06 18 20  15 12 40.363   +13 28 36.35  .71805 1.5568 126.9 21.0  29d  82
2025 06 18 21  15 12 41.666   +13 28 29.83  .71891 1.5574 126.9 21.0  29d  82
2025 06 18 22  15 12 42.970   +13 28 23.27  .71977 1.5579 126.8 21.0  29d  82
2025 06 18 23  15 12 44.275   +13 28 16.68  .72063 1.5585 126.8 21.0  29d  82
2025 06 19 00  15 12 45.581   +13 28 10.03  .72148 1.5591 126.8 21.0  29d  82
2025 06 19 01  15 12 46.888   +13 28 03.35  .72234 1.5596 126.8 21.0  29d  82
2025 06 19 02  15 12 48.195   +13 27 56.63  .72320 1.5602 126.7 21.0  29d  82
2025 06 19 03  15 12 49.504   +13 27 49.86  .72406 1.5607 126.7 21.0  29d  82
2025 06 19 04  15 12 50.813   +13 27 43.06  .72491 1.5613 126.7 21.1  29d  82
2025 06 19 05  15 12 52.124   +13 27 36.21  .72577 1.5619 126.6 21.1  29d  82
2025 06 19 06  15 12 53.435   +13 27 29.32  .72663 1.5624 126.6 21.1  29d  82
2025 06 19 07  15 12 54.747   +13 27 22.39  .72749 1.5630 126.6 21.1  29d  82
2025 06 19 08  15 12 56.060   +13 27 15.42  .72835 1.5636 126.6 21.1  29d  82
2025 06 19 09  15 12 57.374   +13 27 08.41  .72920 1.5641 126.5 21.1  29d  82
2025 06 19 10  15 12 58.689   +13 27 01.36  .73006 1.5647 126.5 21.1  29d  82
2025 06 19 11  15 13 00.005   +13 26 54.27  .73092 1.5653 126.5 21.1  29d  82
2025 06 19 12  15 13 01.322   +13 26 47.14  .73178 1.5658 126.5 21.1  29d  82
2025 06 19 13  15 13 02.640   +13 26 39.97  .73264 1.5664 126.4 21.1  29d  82
2025 06 19 14  15 13 03.959   +13 26 32.75  .73350 1.5670 126.4 21.1  29d  82
2025 06 19 15  15 13 05.279   +13 26 25.50  .73436 1.5675 126.4 21.1  29d  82